Time,TemperatureF,DewpointF,PressureIn,WindDirection,WindDirectionDegrees,WindSpeedMPH,WindSpeedGustMPH,Humidity,HourlyPrecipIn,Conditions,Clouds,dailyrainin,SoftwareType,DateUTC
2013-02-18 00:01:00,39.3,20.8,30.26,SW,223,0.0,0.0,47,0.00,,,0.00,WeatherTracker,2013-02-18 06:01:00,
2013-02-18 00:06:00,39.3,20.8,30.25,SW,227,0.0,0.0,47,0.00,,,0.00,WeatherTracker,2013-02-18 06:06:00,
2013-02-18 00:11:00,39.4,20.9,30.25,SW,215,0.0,0.0,47,0.00,,,0.00,WeatherTracker,2013-02-18 06:11:00,
2013-02-18 00:16:00,39.4,20.4,30.25,WSW,237,0.0,0.0,46,0.00,,,0.00,WeatherTracker,2013-02-18 06:16:00,
2013-02-18 00:21:00,39.4,20.4,30.25,SSW,209,0.0,0.0,46,0.00,,,0.00,WeatherTracker,2013-02-18 06:21:00,
2013-02-18 00:26:00,39.4,20.4,30.25,SSW,205,0.0,0.0,46,0.00,,,0.00,WeatherTracker,2013-02-18 06:26:00,
2013-02-18 00:31:00,39.5,19.9,30.25,SW,225,2.0,0.0,45,0.00,,,0.00,WeatherTracker,2013-02-18 06:31:00,
2013-02-18 00:36:00,39.5,20.5,30.25,SW,227,0.0,0.0,46,0.00,,,0.00,WeatherTracker,2013-02-18 06:36:00,
2013-02-18 00:41:00,39.5,20.5,30.25,SW,225,0.0,0.0,46,0.00,,,0.00,WeatherTracker,2013-02-18 06:41:00,
2013-02-18 00:46:00,39.5,20.5,30.25,SSW,207,0.0,0.0,46,0.00,,,0.00,WeatherTracker,2013-02-18 06:46:00,
2013-02-18 00:51:00,39.5,20.5,30.25,SW,230,0.0,0.0,46,0.00,,,0.00,WeatherTracker,2013-02-18 06:51:00,
2013-02-18 00:56:00,39.5,20.5,30.25,SW,229,2.0,0.0,46,0.00,,,0.00,WeatherTracker,2013-02-18 06:56:00,
2013-02-18 01:01:00,39.4,20.4,30.25,SSW,207,0.0,0.0,46,0.00,,,0.00,WeatherTracker,2013-02-18 07:01:00,
2013-02-18 01:06:00,39.4,20.4,30.25,SW,219,0.0,0.0,46,0.00,,,0.00,WeatherTracker,2013-02-18 07:06:00,
2013-02-18 01:11:00,39.3,20.8,30.24,SW,222,3.0,0.0,47,0.00,,,0.00,WeatherTracker,2013-02-18 07:11:00,
2013-02-18 01:16:00,39.2,20.2,30.24,SSW,211,0.0,0.0,46,0.00,,,0.00,WeatherTracker,2013-02-18 07:16:00,
2013-02-18 01:21:00,39.2,20.7,30.24,SW,225,3.0,0.0,47,0.00,,,0.00,WeatherTracker,2013-02-18 07:21:00,
2013-02-18 01:26:00,39.3,20.3,30.24,SW,217,0.0,0.0,46,0.00,,,0.00,WeatherTracker,2013-02-18 07:26:00,
2013-02-18 01:32:00,39.4,20.4,30.24,SW,223,0.0,0.0,46,0.00,,,0.00,WeatherTracker,2013-02-18 07:32:00,
2013-02-18 01:37:00,39.5,20.5,30.24,SSW,199,0.0,0.0,46,0.00,,,0.00,WeatherTracker,2013-02-18 07:37:00,
2013-02-18 01:42:00,39.7,20.6,30.25,SW,226,0.0,0.0,46,0.00,,,0.00,WeatherTracker,2013-02-18 07:42:00,
2013-02-18 01:47:00,39.8,20.7,30.25,SW,223,0.0,0.0,46,0.00,,,0.00,WeatherTracker,2013-02-18 07:47:00,
2013-02-18 01:52:00,39.8,20.7,30.25,WSW,240,3.0,0.0,46,0.00,,,0.00,WeatherTracker,2013-02-18 07:52:00,
2013-02-18 01:57:00,39.9,20.8,30.25,SW,226,1.0,0.0,46,0.00,,,0.00,WeatherTracker,2013-02-18 07:57:00,
2013-02-18 02:02:00,39.8,20.7,30.25,SW,234,4.0,0.0,46,0.00,,,0.00,WeatherTracker,2013-02-18 08:02:00,
2013-02-18 02:07:00,39.7,21.1,30.25,WSW,242,3.0,0.0,47,0.00,,,0.00,WeatherTracker,2013-02-18 08:07:00,
2013-02-18 02:12:00,39.6,21.0,30.24,SW,227,6.0,0.0,47,0.00,,,0.00,WeatherTracker,2013-02-18 08:12:00,
2013-02-18 02:17:00,39.6,21.0,30.25,WSW,237,3.0,0.0,47,0.00,,,0.00,WeatherTracker,2013-02-18 08:17:00,
2013-02-18 02:22:00,39.5,21.0,30.24,SW,232,4.0,0.0,47,0.00,,,0.00,WeatherTracker,2013-02-18 08:22:00,
2013-02-18 02:27:00,39.4,21.4,30.24,SW,225,4.0,0.0,48,0.00,,,0.00,WeatherTracker,2013-02-18 08:27:00,
2013-02-18 02:32:00,39.4,20.9,30.24,SW,234,4.0,0.0,47,0.00,,,0.00,WeatherTracker,2013-02-18 08:32:00,
2013-02-18 02:37:00,39.3,21.3,30.24,SW,229,4.0,0.0,48,0.00,,,0.00,WeatherTracker,2013-02-18 08:37:00,
2013-02-18 02:42:00,39.2,21.2,30.24,SW,233,4.0,0.0,48,0.00,,,0.00,WeatherTracker,2013-02-18 08:42:00,
2013-02-18 02:47:00,39.0,21.0,30.24,SSW,210,0.0,0.0,48,0.00,,,0.00,WeatherTracker,2013-02-18 08:47:00,
2013-02-18 02:52:00,38.9,20.9,30.24,SW,229,2.0,0.0,48,0.00,,,0.00,WeatherTracker,2013-02-18 08:52:00,
2013-02-18 02:57:00,38.8,21.3,30.24,SW,222,4.0,0.0,49,0.00,,,0.00,WeatherTracker,2013-02-18 08:57:00,
2013-02-18 03:02:00,38.7,21.2,30.24,SW,227,3.0,0.0,49,0.00,,,0.00,WeatherTracker,2013-02-18 09:02:00,
2013-02-18 03:07:00,38.8,21.3,30.23,WSW,237,1.0,0.0,49,0.00,,,0.00,WeatherTracker,2013-02-18 09:07:00,
2013-02-18 03:12:00,38.8,21.3,30.23,WSW,242,3.0,0.0,49,0.00,,,0.00,WeatherTracker,2013-02-18 09:12:00,
2013-02-18 03:17:00,38.8,21.3,30.23,SW,227,2.0,0.0,49,0.00,,,0.00,WeatherTracker,2013-02-18 09:17:00,
2013-02-18 03:23:00,38.8,21.3,30.23,SW,229,3.0,0.0,49,0.00,,,0.00,WeatherTracker,2013-02-18 09:23:00,
2013-02-18 03:28:00,38.8,21.8,30.23,SW,234,3.0,0.0,50,0.00,,,0.00,WeatherTracker,2013-02-18 09:28:00,
2013-02-18 03:33:00,38.9,21.9,30.23,WSW,241,0.0,0.0,50,0.00,,,0.00,WeatherTracker,2013-02-18 09:33:00,
2013-02-18 03:38:00,38.8,21.8,30.23,SW,221,4.0,0.0,50,0.00,,,0.00,WeatherTracker,2013-02-18 09:38:00,
2013-02-18 03:43:00,38.8,22.2,30.23,SW,236,1.0,0.0,51,0.00,,,0.00,WeatherTracker,2013-02-18 09:43:00,
2013-02-18 03:48:00,38.8,22.2,30.23,SW,222,0.0,0.0,51,0.00,,,0.00,WeatherTracker,2013-02-18 09:48:00,
2013-02-18 03:53:00,38.7,22.1,30.23,WSW,240,2.0,0.0,51,0.00,,,0.00,WeatherTracker,2013-02-18 09:53:00,
2013-02-18 03:58:00,38.7,22.1,30.24,SW,228,1.0,0.0,51,0.00,,,0.00,WeatherTracker,2013-02-18 09:58:00,
2013-02-18 04:03:00,38.6,22.5,30.24,SW,234,3.0,0.0,52,0.00,,,0.00,WeatherTracker,2013-02-18 10:03:00,
2013-02-18 04:08:00,38.6,22.5,30.24,SSW,202,1.0,0.0,52,0.00,,,0.00,WeatherTracker,2013-02-18 10:08:00,
2013-02-18 04:13:00,38.7,23.1,30.25,WSW,237,1.0,0.0,53,0.00,,,0.00,WeatherTracker,2013-02-18 10:13:00,
2013-02-18 04:18:00,38.6,23.0,30.24,WSW,238,4.0,0.0,53,0.00,,,0.00,WeatherTracker,2013-02-18 10:18:00,
2013-02-18 04:23:00,38.6,23.4,30.25,SW,227,4.0,0.0,54,0.00,,,0.00,WeatherTracker,2013-02-18 10:23:00,
2013-02-18 04:28:00,38.7,23.5,30.25,SW,226,5.0,0.0,54,0.00,,,0.00,WeatherTracker,2013-02-18 10:28:00,
2013-02-18 04:33:00,38.7,23.5,30.25,SW,229,4.0,0.0,54,0.00,,,0.00,WeatherTracker,2013-02-18 10:33:00,
2013-02-18 04:38:00,38.6,23.4,30.25,SW,218,4.0,0.0,54,0.00,,,0.00,WeatherTracker,2013-02-18 10:38:00,
2013-02-18 04:43:00,38.5,23.8,30.26,SW,229,4.0,0.0,55,0.00,,,0.00,WeatherTracker,2013-02-18 10:43:00,
2013-02-18 04:48:00,38.3,23.6,30.25,SW,226,5.0,0.0,55,0.00,,,0.00,WeatherTracker,2013-02-18 10:48:00,
2013-02-18 04:54:00,38.2,23.9,30.25,SW,226,4.0,0.0,56,0.00,,,0.00,WeatherTracker,2013-02-18 10:54:00,
2013-02-18 04:59:00,38.2,23.9,30.25,SW,229,1.0,0.0,56,0.00,,,0.00,WeatherTracker,2013-02-18 10:59:00,
2013-02-18 05:04:00,38.1,24.2,30.25,SW,223,2.0,0.0,57,0.00,,,0.00,WeatherTracker,2013-02-18 11:04:00,
2013-02-18 05:09:00,38.2,24.7,30.26,SW,232,4.0,0.0,58,0.00,,,0.00,WeatherTracker,2013-02-18 11:09:00,
2013-02-18 05:14:00,38.2,24.3,30.26,SW,226,5.0,0.0,57,0.00,,,0.00,WeatherTracker,2013-02-18 11:14:00,
2013-02-18 05:19:00,38.1,24.2,30.26,SW,227,1.0,0.0,57,0.00,,,0.00,WeatherTracker,2013-02-18 11:19:00,
2013-02-18 05:24:00,38.0,24.6,30.26,SW,225,1.0,0.0,58,0.00,,,0.00,WeatherTracker,2013-02-18 11:24:00,
2013-02-18 05:29:00,37.9,24.5,30.26,SW,231,5.0,0.0,58,0.00,,,0.00,WeatherTracker,2013-02-18 11:29:00,
2013-02-18 05:34:00,37.8,24.8,30.26,WSW,242,4.0,0.0,59,0.00,,,0.00,WeatherTracker,2013-02-18 11:34:00,
2013-02-18 05:39:00,37.9,24.9,30.26,SW,226,3.0,0.0,59,0.00,,,0.00,WeatherTracker,2013-02-18 11:39:00,
2013-02-18 05:44:00,37.9,25.3,30.25,SW,229,1.0,0.0,60,0.00,,,0.00,WeatherTracker,2013-02-18 11:44:00,
2013-02-18 05:49:00,38.0,25.4,30.26,SW,223,3.0,0.0,60,0.00,,,0.00,WeatherTracker,2013-02-18 11:49:00,
2013-02-18 05:54:00,38.2,25.6,30.25,SW,236,4.0,0.0,60,0.00,,,0.00,WeatherTracker,2013-02-18 11:54:00,
2013-02-18 05:59:00,38.3,26.0,30.25,SSW,202,0.0,0.0,61,0.00,,,0.00,WeatherTracker,2013-02-18 11:59:00,
2013-02-18 06:04:00,38.5,26.2,30.26,SW,222,4.0,0.0,61,0.00,,,0.00,WeatherTracker,2013-02-18 12:04:00,
2013-02-18 06:09:00,38.4,26.1,30.26,WSW,240,4.0,0.0,61,0.00,,,0.00,WeatherTracker,2013-02-18 12:09:00,
2013-02-18 06:14:00,38.3,26.0,30.26,SW,230,0.0,0.0,61,0.00,,,0.00,WeatherTracker,2013-02-18 12:14:00,
2013-02-18 06:19:00,38.2,26.3,30.26,WSW,239,3.0,0.0,62,0.00,,,0.00,WeatherTracker,2013-02-18 12:19:00,
2013-02-18 06:24:00,38.1,27.0,30.26,WSW,245,1.0,0.0,64,0.00,,,0.00,WeatherTracker,2013-02-18 12:24:00,
2013-02-18 06:29:00,38.0,26.9,30.27,SW,226,2.0,0.0,64,0.00,,,0.00,WeatherTracker,2013-02-18 12:29:00,
2013-02-18 06:34:00,37.9,26.8,30.26,SW,224,1.0,0.0,64,0.00,,,0.00,WeatherTracker,2013-02-18 12:34:00,
2013-02-18 06:39:00,37.8,27.1,30.27,SW,227,2.0,0.0,65,0.00,,,0.00,WeatherTracker,2013-02-18 12:39:00,
2013-02-18 06:44:00,37.7,27.0,30.27,SW,232,1.0,0.0,65,0.00,,,0.00,WeatherTracker,2013-02-18 12:44:00,
2013-02-18 06:49:00,37.9,27.6,30.27,SW,234,3.0,0.0,66,0.00,,,0.00,WeatherTracker,2013-02-18 12:49:00,
2013-02-18 06:54:00,38.1,27.8,30.27,SW,226,0.0,0.0,66,0.00,,,0.00,WeatherTracker,2013-02-18 12:54:00,
2013-02-18 06:59:00,38.2,27.5,30.27,SW,236,0.0,0.0,65,0.00,,,0.00,WeatherTracker,2013-02-18 12:59:00,
2013-02-18 07:04:00,38.2,27.5,30.27,SW,236,4.0,0.0,65,0.00,,,0.00,WeatherTracker,2013-02-18 13:04:00,
2013-02-18 07:09:00,38.3,27.6,30.27,WSW,248,2.0,0.0,65,0.00,,,0.00,WeatherTracker,2013-02-18 13:09:00,
2013-02-18 07:15:00,38.4,28.0,30.27,SW,215,1.0,0.0,66,0.00,,,0.00,WeatherTracker,2013-02-18 13:15:00,
2013-02-18 07:20:00,38.6,28.2,30.27,WSW,258,0.0,0.0,66,0.00,,,0.00,WeatherTracker,2013-02-18 13:20:00,
2013-02-18 07:25:00,39.0,29.0,30.28,WSW,255,2.0,0.0,67,0.00,,,0.00,WeatherTracker,2013-02-18 13:25:00,
2013-02-18 07:30:00,39.3,29.3,30.28,SSW,206,4.0,0.0,67,0.00,,,0.00,WeatherTracker,2013-02-18 13:30:00,
2013-02-18 07:35:00,39.7,29.3,30.28,SW,232,2.0,0.0,66,0.00,,,0.00,WeatherTracker,2013-02-18 13:35:00,
2013-02-18 07:40:00,40.1,29.7,30.28,SW,227,3.0,0.0,66,0.00,,,0.00,WeatherTracker,2013-02-18 13:40:00,
2013-02-18 07:45:00,40.6,29.8,30.28,WSW,245,4.0,0.0,65,0.00,,,0.00,WeatherTracker,2013-02-18 13:45:00,
2013-02-18 07:50:00,40.9,30.4,30.28,SW,232,0.0,0.0,66,0.00,,,0.00,WeatherTracker,2013-02-18 13:50:00,
2013-02-18 07:55:00,41.2,30.3,30.28,SW,232,3.0,0.0,65,0.00,,,0.00,WeatherTracker,2013-02-18 13:55:00,
2013-02-18 08:00:00,41.5,31.0,30.29,SW,226,2.0,0.0,66,0.00,,,0.00,WeatherTracker,2013-02-18 14:00:00,
2013-02-18 08:05:00,41.7,31.2,30.29,SW,233,1.0,0.0,66,0.00,,,0.00,WeatherTracker,2013-02-18 14:05:00,
2013-02-18 08:10:00,41.8,31.3,30.29,SW,222,3.0,0.0,66,0.00,,,0.00,WeatherTracker,2013-02-18 14:10:00,
2013-02-18 08:15:00,42.2,31.7,30.29,SW,223,0.0,0.0,66,0.00,,,0.00,WeatherTracker,2013-02-18 14:15:00,
2013-02-18 08:20:00,42.4,31.9,30.29,WSW,242,1.0,0.0,66,0.00,,,0.00,WeatherTracker,2013-02-18 14:20:00,
2013-02-18 08:25:00,42.8,32.2,30.29,SW,225,2.0,0.0,66,0.00,,,0.00,WeatherTracker,2013-02-18 14:25:00,